Regional Weather Roundup
Issued by NWS State College, PA

Home | Current Version | Previous Version | Graphics & Text | Print | Product List | Glossary On
Versions: 1 2 3 4 5 6 7 8 9 10 11 12 13 14 15 16 17 18 19 20 21 22 23 24 25 26 27 28 29 30 31 32 33 34 35 36 37 38 39 40 41 42 43 44 45 46 47 48 49 50
000
ASUS41 KCTP 050003
RWRCTP

REGIONAL WEATHER ROUNDUP
NATIONAL WEATHER SERVICE STATE COLLEGE PA
700 PM EST SUN DEC 04 2016

Note: "fair" indicates few or no clouds below 12,000 feet with no
significant weather and/or obstructions to visibility.

* = STATION THAT DOES NOT REPORT PRECIPITATION /E.G. RAIN...SNOW...ETC/
    THUNDER OR FOG.

PAZ002>004-007>009-013>016-020>023-029>032-050100-
WESTERN PENNSYLVANIA

CITY           SKY/WX    TMP DP  RH WIND       PRES   REMARKS
ERIE           CLOUDY    40  29  64 E7        30.00F
MEADVILLE      CLOUDY    37  27  67 VRB5      29.97F
FRANKLIN*        N/A     36  25  64 E12G20    29.98F
NEW CASTLE     CLOUDY    39  28  64 E7        29.97F
BEAVER COUNTY  NOT AVBL
BUTLER*        CLOUDY    37  27  65 E12       29.99F
PITTSBURGH INT CLOUDY    41  29  62 E8        29.94F
PITTSBURGH     CLOUDY    40  25  55 E9        29.95F
INDIANA*       CLOUDY    39  28  65 SE10G16   30.04S
LATROBE        NOT AVBL
WASHINGTON CO* CLOUDY    39  27  60 E3        29.94F
$$

PAZ004>006-010>012-017>019-024>028-033>037-041-042-045-046-049>053-050100-
CENTRAL PENNSYLVANIA

CITY           SKY/WX    TMP DP  RH WIND       PRES   REMARKS
BRADFORD       CLOUDY    32  26  78 SE9       30.02F
DUBOIS         CLOUDY    35  26  69 SE12      30.01F
CLEARFIELD     CLOUDY    36  28  73 E6        30.06F
JOHNSTOWN      CLOUDY    34  26  72 SE9       30.00S
ALTOONA        CLOUDY    38  28  67 SE12      30.08F
STATE COLLEGE  PTCLDY    37  27  65 S5        30.09S
WILLIAMSPORT   MOCLDY    40  26  57 E6        30.13S
SELINSGROVE    CLOUDY    37  31  78 CALM      30.15F
FT INDIANTOWN  CLOUDY    38  28  68 NE2       30.15F
CAPITAL CITY   PTCLDY    42  28  57 S3        30.15F
HARRISBURG     CLOUDY    42  31  64 S3        30.15F
YORK           CLOUDY    37  32  82 SE3       30.15S
$$

PAZ038>040-043-044-047-048-054-055-060>062-067>071-050100-
EASTERN PENNSYLVANIA

CITY           SKY/WX    TMP DP  RH WIND       PRES   REMARKS
SCRANTON       CLOUDY    36  24  62 CALM      30.14S
MOUNT POCONO   CLOUDY    30  23  75 CALM      30.10F
ALLENTOWN      CLOUDY    40  24  53 CALM      30.16S
QUAKERTOWN*    CLOUDY    36  28  75 CALM      30.17S
READING        CLOUDY    40  26  57 S3        30.16S
LANCASTER      CLOUDY    41  29  62 CALM      30.16F
COATESVILLE    CLOUDY    41  27  56 CALM      30.16F
POTTSTOWN      CLOUDY    37  28  70 CALM      30.18S
BLUE BELL      CLOUDY    36  32  87 CALM      30.17S
DOYLESTOWN     MOCLDY    40  27  59 CALM      30.17S
WILLOW GROVE   NOT AVBL
NORTH PHILA    CLOUDY    41  28  60 CALM      30.20S
PHILADELPHIA   CLOUDY    44  28  53 SW5       30.19S
$$



USA.gov is the U.S. government's official web portal to all federal, state and local government web resources and services.